Time,TemperatureF,DewpointF,PressureIn,WindDirection,WindDirectionDegrees,WindSpeedMPH,WindSpeedGustMPH,Humidity,HourlyPrecipIn,Conditions,Clouds,dailyrainin,SolarRadiationWatts/m^2,SoftwareType,DateUTC
2013-01-12 00:00:00,26.2,25.5,30.31,N/A,-737280,0.0,-999.0,97,0.00,,,0.01,0,Wunderground v.1.15,2013-01-12 08:00:00,
2013-01-12 00:05:00,26.2,25.5,30.31,N/A,-737280,0.0,-999.0,97,0.00,,,0.01,0,Wunderground v.1.15,2013-01-12 08:05:00,
2013-01-12 00:07:00,26.2,26.0,30.31,SSE,163,0.0,0.0,97,0.00,,,0.00,0,weatherlink.com 1.10,2013-01-12 08:07:00,
2013-01-12 00:10:00,26.2,25.5,30.31,N/A,-737280,0.0,-999.0,97,0.00,,,0.01,0,Wunderground v.1.15,2013-01-12 08:10:00,
2013-01-12 00:15:00,26.2,25.5,30.31,N/A,-737280,0.0,-999.0,97,0.00,,,0.01,0,Wunderground v.1.15,2013-01-12 08:15:00,
2013-01-12 00:20:00,26.2,25.5,30.31,N/A,-737280,0.0,-999.0,97,0.00,,,0.01,0,Wunderground v.1.15,2013-01-12 08:20:00,
2013-01-12 00:22:00,26.2,26.0,30.31,SSE,163,0.0,0.0,97,0.00,,,0.00,0,weatherlink.com 1.10,2013-01-12 08:22:00,
2013-01-12 00:25:00,26.1,25.4,30.32,N/A,-737280,0.0,-999.0,97,0.00,,,0.01,0,Wunderground v.1.15,2013-01-12 08:25:00,
2013-01-12 00:30:00,26.1,25.4,30.32,N/A,-737280,0.0,-999.0,97,0.00,,,0.01,0,Wunderground v.1.15,2013-01-12 08:30:00,
2013-01-12 00:35:00,26.1,25.4,30.32,N/A,-737280,0.0,-999.0,97,0.00,,,0.01,0,Wunderground v.1.15,2013-01-12 08:35:00,
2013-01-12 00:37:00,26.0,25.0,30.32,SSE,163,0.0,0.0,97,0.00,,,0.00,0,weatherlink.com 1.10,2013-01-12 08:37:00,
2013-01-12 00:40:00,26.0,25.3,30.32,N/A,-737280,0.0,-999.0,97,0.00,,,0.01,0,Wunderground v.1.15,2013-01-12 08:40:00,
2013-01-12 00:45:00,26.0,25.3,30.32,N/A,-737280,0.0,-999.0,97,0.00,,,0.01,0,Wunderground v.1.15,2013-01-12 08:45:00,
2013-01-12 00:50:00,26.0,25.3,30.32,N/A,-737280,0.0,-999.0,97,0.00,,,0.01,0,Wunderground v.1.15,2013-01-12 08:50:00,
2013-01-12 00:52:00,26.0,25.0,30.32,SSE,163,0.0,0.0,97,0.00,,,0.00,0,weatherlink.com 1.10,2013-01-12 08:52:00,
2013-01-12 00:55:00,26.0,25.3,30.32,N/A,-737280,0.0,-999.0,97,0.00,,,0.01,0,Wunderground v.1.15,2013-01-12 08:55:00,
2013-01-12 01:00:00,26.0,25.3,30.32,N/A,-737280,0.0,-999.0,97,0.00,,,0.01,0,Wunderground v.1.15,2013-01-12 09:00:00,
2013-01-12 01:05:00,26.0,25.3,30.32,N/A,-737280,0.0,-999.0,97,0.00,,,0.01,0,Wunderground v.1.15,2013-01-12 09:05:00,
2013-01-12 01:07:00,26.0,25.0,30.32,SSE,163,0.0,0.0,97,0.00,,,0.00,0,weatherlink.com 1.10,2013-01-12 09:07:00,
2013-01-12 01:10:00,25.9,25.2,30.32,N/A,-737280,0.0,-999.0,97,0.00,,,0.01,0,Wunderground v.1.15,2013-01-12 09:10:00,
2013-01-12 01:15:00,25.9,25.2,30.32,N/A,-737280,0.0,-999.0,97,0.00,,,0.01,0,Wunderground v.1.15,2013-01-12 09:15:00,
2013-01-12 01:20:00,25.9,25.2,30.32,N/A,-737280,0.0,-999.0,97,0.00,,,0.01,0,Wunderground v.1.15,2013-01-12 09:20:00,
2013-01-12 01:22:00,25.8,25.0,30.32,SSE,163,0.0,0.0,97,0.00,,,0.00,0,weatherlink.com 1.10,2013-01-12 09:22:00,
2013-01-12 01:25:00,25.7,25.0,30.32,N/A,-737280,0.0,-999.0,97,0.00,,,0.01,0,Wunderground v.1.15,2013-01-12 09:25:00,
2013-01-12 01:30:00,25.7,25.0,30.32,N/A,-737280,0.0,-999.0,97,0.00,,,0.01,0,Wunderground v.1.15,2013-01-12 09:30:00,
2013-01-12 01:35:00,25.7,25.0,30.32,N/A,-737280,0.0,-999.0,97,0.00,,,0.01,0,Wunderground v.1.15,2013-01-12 09:35:00,
2013-01-12 01:37:00,25.5,25.0,30.32,SSE,163,0.0,0.0,97,0.00,,,0.00,0,weatherlink.com 1.10,2013-01-12 09:37:00,
2013-01-12 01:40:00,25.5,24.8,30.32,N/A,-737280,0.0,-999.0,97,0.00,,,0.01,0,Wunderground v.1.15,2013-01-12 09:40:00,
2013-01-12 01:45:00,25.5,24.8,30.32,N/A,-737280,0.0,-999.0,97,0.00,,,0.01,0,Wunderground v.1.15,2013-01-12 09:45:00,
2013-01-12 01:50:00,25.5,24.8,30.32,N/A,-737280,0.0,-999.0,97,0.00,,,0.01,0,Wunderground v.1.15,2013-01-12 09:50:00,
2013-01-12 01:52:00,25.4,25.0,30.32,SSE,163,0.0,0.0,97,0.00,,,0.00,0,weatherlink.com 1.10,2013-01-12 09:52:00,
2013-01-12 01:55:00,25.4,24.7,30.32,N/A,-737280,0.0,-999.0,97,0.00,,,0.01,0,Wunderground v.1.15,2013-01-12 09:55:00,
2013-01-12 02:00:00,25.4,24.7,30.32,N/A,-737280,0.0,-999.0,97,0.00,,,0.01,0,Wunderground v.1.15,2013-01-12 10:00:00,
2013-01-12 02:05:00,25.4,24.7,30.32,N/A,-737280,0.0,-999.0,97,0.00,,,0.01,0,Wunderground v.1.15,2013-01-12 10:05:00,
2013-01-12 02:07:00,25.3,25.0,30.32,SSE,163,0.0,0.0,97,0.00,,,0.00,0,weatherlink.com 1.10,2013-01-12 10:07:00,
2013-01-12 02:10:00,25.2,24.2,30.32,N/A,-737280,0.0,-999.0,96,0.00,,,0.01,0,Wunderground v.1.15,2013-01-12 10:10:00,
2013-01-12 02:15:00,25.2,24.2,30.32,N/A,-737280,0.0,-999.0,96,0.00,,,0.01,0,Wunderground v.1.15,2013-01-12 10:15:00,
2013-01-12 02:20:00,25.2,24.2,30.32,N/A,-737280,0.0,-999.0,96,0.00,,,0.01,0,Wunderground v.1.15,2013-01-12 10:20:00,
2013-01-12 02:23:00,25.1,24.0,30.32,SSE,163,0.0,0.0,97,0.00,,,0.00,0,weatherlink.com 1.10,2013-01-12 10:23:00,
2013-01-12 02:25:00,25.1,24.4,30.33,N/A,-737280,0.0,-999.0,97,0.00,,,0.01,0,Wunderground v.1.15,2013-01-12 10:25:00,
2013-01-12 02:30:00,25.1,24.4,30.33,N/A,-737280,0.0,-999.0,97,0.00,,,0.01,0,Wunderground v.1.15,2013-01-12 10:30:00,
2013-01-12 02:35:00,25.1,24.4,30.33,N/A,-737280,0.0,-999.0,97,0.00,,,0.01,0,Wunderground v.1.15,2013-01-12 10:35:00,
2013-01-12 02:37:00,24.9,24.0,30.33,SSE,163,0.0,0.0,97,0.00,,,0.00,0,weatherlink.com 1.10,2013-01-12 10:37:00,
2013-01-12 02:40:00,24.9,24.2,30.33,N/A,-737280,0.0,-999.0,97,0.00,,,0.01,0,Wunderground v.1.15,2013-01-12 10:40:00,
2013-01-12 02:45:00,24.9,24.2,30.33,N/A,-737280,0.0,-999.0,97,0.00,,,0.01,0,Wunderground v.1.15,2013-01-12 10:45:00,
2013-01-12 02:50:00,24.9,24.2,30.33,N/A,-737280,0.0,-999.0,97,0.00,,,0.01,0,Wunderground v.1.15,2013-01-12 10:50:00,
2013-01-12 02:53:00,24.8,24.0,30.32,SSE,163,0.0,0.0,97,0.00,,,0.00,0,weatherlink.com 1.10,2013-01-12 10:53:00,
2013-01-12 02:55:00,24.7,23.7,30.32,N/A,-737280,0.0,-999.0,96,0.00,,,0.01,0,Wunderground v.1.15,2013-01-12 10:55:00,
2013-01-12 03:00:00,24.7,23.7,30.32,N/A,-737280,0.0,-999.0,96,0.00,,,0.01,0,Wunderground v.1.15,2013-01-12 11:00:00,
2013-01-12 03:05:00,24.7,23.7,30.32,N/A,-737280,0.0,-999.0,96,0.00,,,0.01,0,Wunderground v.1.15,2013-01-12 11:05:00,
2013-01-12 03:08:00,24.5,24.0,30.32,SSE,163,0.0,0.0,96,0.00,,,0.00,0,weatherlink.com 1.10,2013-01-12 11:08:00,
2013-01-12 03:10:00,24.4,23.4,30.32,N/A,-737280,0.0,-999.0,96,0.00,,,0.01,0,Wunderground v.1.15,2013-01-12 11:10:00,
2013-01-12 03:15:00,24.4,23.4,30.32,N/A,-737280,0.0,-999.0,96,0.00,,,0.01,0,Wunderground v.1.15,2013-01-12 11:15:00,
2013-01-12 03:20:00,24.4,23.4,30.32,N/A,-737280,0.0,-999.0,96,0.00,,,0.01,0,Wunderground v.1.15,2013-01-12 11:20:00,
2013-01-12 03:23:00,24.2,23.0,30.32,SSE,163,0.0,0.0,96,0.00,,,0.00,0,weatherlink.com 1.10,2013-01-12 11:23:00,
2013-01-12 03:25:00,24.2,23.2,30.32,N/A,-737280,0.0,-999.0,96,0.00,,,0.01,0,Wunderground v.1.15,2013-01-12 11:25:00,
2013-01-12 03:30:00,24.2,23.2,30.32,N/A,-737280,0.0,-999.0,96,0.00,,,0.01,0,Wunderground v.1.15,2013-01-12 11:30:00,
2013-01-12 03:35:00,24.2,23.2,30.32,N/A,-737280,0.0,-999.0,96,0.00,,,0.01,0,Wunderground v.1.15,2013-01-12 11:35:00,
2013-01-12 03:38:00,24.1,23.0,30.32,SSE,163,0.0,0.0,96,0.00,,,0.00,0,weatherlink.com 1.10,2013-01-12 11:38:00,
2013-01-12 03:40:00,24.1,23.1,30.33,N/A,-737280,0.0,-999.0,96,0.00,,,0.01,0,Wunderground v.1.15,2013-01-12 11:40:00,
2013-01-12 03:45:00,24.1,23.1,30.33,N/A,-737280,0.0,-999.0,96,0.00,,,0.01,0,Wunderground v.1.15,2013-01-12 11:45:00,
2013-01-12 03:50:00,24.1,23.1,30.33,N/A,-737280,0.0,-999.0,96,0.00,,,0.01,0,Wunderground v.1.15,2013-01-12 11:50:00,
2013-01-12 03:53:00,23.8,23.0,30.32,SSE,163,0.0,0.0,96,0.00,,,0.00,0,weatherlink.com 1.10,2013-01-12 11:53:00,
2013-01-12 03:55:00,23.8,22.8,30.32,N/A,-737280,0.0,-999.0,96,0.00,,,0.01,0,Wunderground v.1.15,2013-01-12 11:55:00,
2013-01-12 04:00:00,23.8,22.8,30.32,N/A,-737280,0.0,-999.0,96,0.00,,,0.01,0,Wunderground v.1.15,2013-01-12 12:00:00,
2013-01-12 04:05:00,23.8,22.8,30.32,N/A,-737280,0.0,-999.0,96,0.00,,,0.01,0,Wunderground v.1.15,2013-01-12 12:05:00,
2013-01-12 04:08:00,23.6,23.0,30.32,SSE,163,0.0,0.0,96,0.00,,,0.00,0,weatherlink.com 1.10,2013-01-12 12:08:00,
2013-01-12 04:10:00,23.6,22.6,30.33,N/A,-737280,0.0,-999.0,96,0.00,,,0.01,0,Wunderground v.1.15,2013-01-12 12:10:00,
2013-01-12 04:15:00,23.6,22.6,30.33,N/A,-737280,0.0,-999.0,96,0.00,,,0.01,0,Wunderground v.1.15,2013-01-12 12:15:00,
2013-01-12 04:20:00,23.6,22.6,30.33,N/A,-737280,0.0,-999.0,96,0.00,,,0.01,0,Wunderground v.1.15,2013-01-12 12:20:00,
2013-01-12 04:23:00,23.6,23.0,30.33,SSE,163,0.0,0.0,96,0.00,,,0.00,0,weatherlink.com 1.10,2013-01-12 12:23:00,
2013-01-12 04:25:00,23.5,22.5,30.33,N/A,-737280,0.0,-999.0,96,0.00,,,0.01,0,Wunderground v.1.15,2013-01-12 12:25:00,
2013-01-12 04:30:00,23.5,22.5,30.33,N/A,-737280,0.0,-999.0,96,0.00,,,0.01,0,Wunderground v.1.15,2013-01-12 12:30:00,
2013-01-12 04:35:00,23.5,22.5,30.33,N/A,-737280,0.0,-999.0,96,0.00,,,0.01,0,Wunderground v.1.15,2013-01-12 12:35:00,
2013-01-12 04:38:00,23.5,23.0,30.33,SSE,163,0.0,0.0,96,0.00,,,0.00,0,weatherlink.com 1.10,2013-01-12 12:38:00,
2013-01-12 04:40:00,23.5,22.5,30.33,N/A,-737280,0.0,-999.0,96,0.00,,,0.01,0,Wunderground v.1.15,2013-01-12 12:40:00,
2013-01-12 04:45:00,23.5,22.5,30.33,N/A,-737280,0.0,-999.0,96,0.00,,,0.01,0,Wunderground v.1.15,2013-01-12 12:45:00,
2013-01-12 04:50:00,23.5,22.5,30.33,N/A,-737280,0.0,-999.0,96,0.00,,,0.01,0,Wunderground v.1.15,2013-01-12 12:50:00,
2013-01-12 04:53:00,23.5,23.0,30.33,SSE,163,0.0,0.0,96,0.00,,,0.00,0,weatherlink.com 1.10,2013-01-12 12:53:00,
2013-01-12 04:55:00,23.5,22.5,30.33,N/A,-737280,0.0,-999.0,96,0.00,,,0.01,0,Wunderground v.1.15,2013-01-12 12:55:00,
2013-01-12 05:00:00,23.5,22.5,30.33,N/A,-737280,0.0,-999.0,96,0.00,,,0.01,0,Wunderground v.1.15,2013-01-12 13:00:00,
2013-01-12 05:05:00,23.5,22.5,30.33,N/A,-737280,0.0,-999.0,96,0.00,,,0.01,0,Wunderground v.1.15,2013-01-12 13:05:00,
2013-01-12 05:08:00,23.4,23.0,30.33,SSE,163,0.0,0.0,96,0.00,,,0.00,0,weatherlink.com 1.10,2013-01-12 13:08:00,
2013-01-12 05:10:00,23.4,22.4,30.33,N/A,-737280,0.0,-999.0,96,0.00,,,0.01,0,Wunderground v.1.15,2013-01-12 13:10:00,
2013-01-12 05:15:00,23.4,22.4,30.33,N/A,-737280,0.0,-999.0,96,0.00,,,0.01,0,Wunderground v.1.15,2013-01-12 13:15:00,
2013-01-12 05:20:00,23.4,22.4,30.33,N/A,-737280,0.0,-999.0,96,0.00,,,0.01,0,Wunderground v.1.15,2013-01-12 13:20:00,
2013-01-12 05:23:00,23.3,22.0,30.32,SSE,163,0.0,0.0,96,0.00,,,0.00,0,weatherlink.com 1.10,2013-01-12 13:23:00,
2013-01-12 05:25:00,23.3,22.3,30.33,N/A,-737280,0.0,-999.0,96,0.00,,,0.01,0,Wunderground v.1.15,2013-01-12 13:25:00,
2013-01-12 05:30:00,23.3,22.3,30.33,N/A,-737280,0.0,-999.0,96,0.00,,,0.01,0,Wunderground v.1.15,2013-01-12 13:30:00,
2013-01-12 05:35:00,23.3,22.3,30.33,N/A,-737280,0.0,-999.0,96,0.00,,,0.01,0,Wunderground v.1.15,2013-01-12 13:35:00,
2013-01-12 05:38:00,23.3,22.0,30.33,SSE,163,0.0,0.0,96,0.00,,,0.00,0,weatherlink.com 1.10,2013-01-12 13:38:00,
2013-01-12 05:40:00,23.4,22.4,30.33,N/A,-737280,0.0,-999.0,96,0.00,,,0.01,0,Wunderground v.1.15,2013-01-12 13:40:00,
2013-01-12 05:45:00,23.4,22.4,30.33,N/A,-737280,0.0,-999.0,96,0.00,,,0.01,0,Wunderground v.1.15,2013-01-12 13:45:00,
2013-01-12 05:50:00,23.4,22.4,30.33,N/A,-737280,0.0,-999.0,96,0.00,,,0.01,0,Wunderground v.1.15,2013-01-12 13:50:00,
2013-01-12 05:53:00,23.5,23.0,30.33,SSE,163,0.0,0.0,96,0.00,,,0.00,0,weatherlink.com 1.10,2013-01-12 13:53:00,
2013-01-12 05:55:00,23.5,22.5,30.33,N/A,-737280,0.0,-999.0,96,0.00,,,0.01,0,Wunderground v.1.15,2013-01-12 13:55:00,
2013-01-12 06:00:00,23.5,22.5,30.33,N/A,-737280,0.0,-999.0,96,0.00,,,0.01,0,Wunderground v.1.15,2013-01-12 14:00:00,
2013-01-12 06:05:00,23.5,22.5,30.33,N/A,-737280,0.0,-999.0,96,0.00,,,0.01,0,Wunderground v.1.15,2013-01-12 14:05:00,
2013-01-12 06:08:00,23.7,23.0,30.32,SSE,163,0.0,0.0,96,0.00,,,0.00,0,weatherlink.com 1.10,2013-01-12 14:08:00,
2013-01-12 06:10:00,23.6,22.6,30.33,N/A,-737280,0.0,-999.0,96,0.00,,,0.01,0,Wunderground v.1.15,2013-01-12 14:10:00,
2013-01-12 06:15:00,23.6,22.6,30.33,N/A,-737280,0.0,-999.0,96,0.00,,,0.01,0,Wunderground v.1.15,2013-01-12 14:15:00,
2013-01-12 06:20:00,23.6,22.6,30.33,N/A,-737280,0.0,-999.0,96,0.00,,,0.01,0,Wunderground v.1.15,2013-01-12 14:20:00,
2013-01-12 06:23:00,23.6,23.0,30.33,SSE,163,0.0,0.0,96,0.00,,,0.00,0,weatherlink.com 1.10,2013-01-12 14:23:00,
2013-01-12 06:25:00,23.6,22.6,30.33,N/A,-737280,0.0,-999.0,96,0.00,,,0.01,0,Wunderground v.1.15,2013-01-12 14:25:00,
2013-01-12 06:30:00,23.6,22.6,30.33,N/A,-737280,0.0,-999.0,96,0.00,,,0.01,0,Wunderground v.1.15,2013-01-12 14:30:00,
2013-01-12 06:35:00,23.6,22.6,30.33,N/A,-737280,0.0,-999.0,96,0.00,,,0.01,0,Wunderground v.1.15,2013-01-12 14:35:00,
2013-01-12 06:38:00,23.7,23.0,30.33,SSE,163,0.0,0.0,97,0.00,,,0.00,0,weatherlink.com 1.10,2013-01-12 14:38:00,
2013-01-12 06:40:00,23.7,23.0,30.33,N/A,-737280,0.0,-999.0,97,0.00,,,0.01,0,Wunderground v.1.15,2013-01-12 14:40:00,
2013-01-12 06:45:00,23.7,23.0,30.33,N/A,-737280,0.0,-999.0,97,0.00,,,0.01,0,Wunderground v.1.15,2013-01-12 14:45:00,
2013-01-12 06:50:00,23.7,23.0,30.33,N/A,-737280,0.0,-999.0,97,0.00,,,0.01,0,Wunderground v.1.15,2013-01-12 14:50:00,
2013-01-12 06:53:00,23.7,23.0,30.33,SSE,163,0.0,0.0,96,0.00,,,0.00,0,weatherlink.com 1.10,2013-01-12 14:53:00,
2013-01-12 06:55:00,23.7,22.7,30.34,N/A,-737280,0.0,-999.0,96,0.00,,,0.01,0,Wunderground v.1.15,2013-01-12 14:55:00,
2013-01-12 07:00:00,23.7,22.7,30.34,N/A,-737280,0.0,-999.0,96,0.00,,,0.01,0,Wunderground v.1.15,2013-01-12 15:00:00,
2013-01-12 07:05:00,23.7,22.7,30.34,N/A,-737280,0.0,-999.0,96,0.00,,,0.01,0,Wunderground v.1.15,2013-01-12 15:05:00,
2013-01-12 07:08:00,23.6,23.0,30.34,SSE,163,0.0,0.0,96,0.00,,,0.00,0,weatherlink.com 1.10,2013-01-12 15:08:00,
2013-01-12 07:10:00,23.6,22.6,30.34,N/A,-737280,0.0,-999.0,96,0.00,,,0.01,0,Wunderground v.1.15,2013-01-12 15:10:00,
2013-01-12 07:15:00,23.6,22.6,30.34,N/A,-737280,0.0,-999.0,96,0.00,,,0.01,0,Wunderground v.1.15,2013-01-12 15:15:00,
2013-01-12 07:20:00,23.6,22.6,30.34,N/A,-737280,0.0,-999.0,96,0.00,,,0.01,0,Wunderground v.1.15,2013-01-12 15:20:00,
2013-01-12 07:23:00,23.4,23.0,30.34,SSE,163,0.0,0.0,96,0.00,,,0.00,0,weatherlink.com 1.10,2013-01-12 15:23:00,
2013-01-12 07:25:00,23.3,22.3,30.35,N/A,-737280,0.0,-999.0,96,0.00,,,0.01,0,Wunderground v.1.15,2013-01-12 15:25:00,
2013-01-12 07:30:00,23.3,22.3,30.35,N/A,-737280,0.0,-999.0,96,0.00,,,0.01,0,Wunderground v.1.15,2013-01-12 15:30:00,
2013-01-12 07:35:00,23.3,22.3,30.35,N/A,-737280,0.0,-999.0,96,0.00,,,0.01,0,Wunderground v.1.15,2013-01-12 15:35:00,
2013-01-12 07:38:00,23.1,22.0,30.35,SSE,163,0.0,0.0,96,0.00,,,0.00,0,weatherlink.com 1.10,2013-01-12 15:38:00,
2013-01-12 07:40:00,23.1,22.1,30.36,N/A,-737280,0.0,-999.0,96,0.00,,,0.01,0,Wunderground v.1.15,2013-01-12 15:40:00,
2013-01-12 07:45:00,23.1,22.1,30.36,N/A,-737280,0.0,-999.0,96,0.00,,,0.01,0,Wunderground v.1.15,2013-01-12 15:45:00,
2013-01-12 07:50:00,23.1,22.1,30.36,N/A,-737280,0.0,-999.0,96,0.00,,,0.01,0,Wunderground v.1.15,2013-01-12 15:50:00,
2013-01-12 07:53:00,23.0,22.0,30.36,SSE,163,0.0,0.0,96,0.00,,,0.00,0,weatherlink.com 1.10,2013-01-12 15:53:00,
2013-01-12 07:55:00,23.0,22.0,30.36,N/A,-737280,0.0,-999.0,96,0.00,,,0.01,1,Wunderground v.1.15,2013-01-12 15:55:00,
2013-01-12 08:00:00,23.0,22.0,30.36,N/A,-737280,0.0,-999.0,96,0.00,,,0.01,1,Wunderground v.1.15,2013-01-12 16:00:00,
2013-01-12 08:05:00,23.0,22.0,30.36,N/A,-737280,0.0,-999.0,96,0.00,,,0.01,1,Wunderground v.1.15,2013-01-12 16:05:00,
2013-01-12 08:08:00,23.0,22.0,30.36,SSE,163,0.0,0.0,96,0.00,,,0.00,9,weatherlink.com 1.10,2013-01-12 16:08:00,
2013-01-12 08:10:00,23.0,22.0,30.36,N/A,-737280,0.0,-999.0,96,0.00,,,0.01,9,Wunderground v.1.15,2013-01-12 16:10:00,
2013-01-12 08:15:00,23.0,22.0,30.36,N/A,-737280,0.0,-999.0,96,0.00,,,0.01,9,Wunderground v.1.15,2013-01-12 16:15:00,
2013-01-12 08:20:00,23.0,22.0,30.36,N/A,-737280,0.0,-999.0,96,0.00,,,0.01,9,Wunderground v.1.15,2013-01-12 16:20:00,
2013-01-12 08:23:00,22.9,22.0,30.36,SSE,163,0.0,0.0,96,0.00,,,0.00,14,weatherlink.com 1.10,2013-01-12 16:23:00,
2013-01-12 08:25:00,22.9,21.9,30.37,N/A,-737280,0.0,-999.0,96,0.00,,,0.01,15,Wunderground v.1.15,2013-01-12 16:25:00,
2013-01-12 08:30:00,22.9,21.9,30.37,N/A,-737280,0.0,-999.0,96,0.00,,,0.01,15,Wunderground v.1.15,2013-01-12 16:30:00,
2013-01-12 08:35:00,22.9,21.9,30.37,N/A,-737280,0.0,-999.0,96,0.00,,,0.01,15,Wunderground v.1.15,2013-01-12 16:35:00,
2013-01-12 08:38:00,22.8,22.0,30.37,SSE,163,0.0,0.0,96,0.00,,,0.00,23,weatherlink.com 1.10,2013-01-12 16:38:00,
2013-01-12 08:40:00,22.8,21.8,30.37,N/A,-737280,0.0,-999.0,96,0.00,,,0.01,23,Wunderground v.1.15,2013-01-12 16:40:00,
2013-01-12 08:45:00,22.8,21.8,30.37,N/A,-737280,0.0,-999.0,96,0.00,,,0.01,23,Wunderground v.1.15,2013-01-12 16:45:00,
2013-01-12 08:50:00,22.8,21.8,30.37,N/A,-737280,0.0,-999.0,96,0.00,,,0.01,23,Wunderground v.1.15,2013-01-12 16:50:00,
2013-01-12 08:53:00,22.8,22.0,30.37,SSE,163,0.0,0.0,96,0.00,,,0.00,28,weatherlink.com 1.10,2013-01-12 16:53:00,
2013-01-12 08:55:00,22.8,21.8,30.37,N/A,-737280,0.0,-999.0,96,0.00,,,0.01,29,Wunderground v.1.15,2013-01-12 16:55:00,
2013-01-12 09:00:00,22.8,21.8,30.37,N/A,-737280,0.0,-999.0,96,0.00,,,0.01,29,Wunderground v.1.15,2013-01-12 17:00:00,
2013-01-12 09:05:00,22.8,21.8,30.37,N/A,-737280,0.0,-999.0,96,0.00,,,0.01,29,Wunderground v.1.15,2013-01-12 17:05:00,
2013-01-12 09:08:00,22.9,22.0,30.37,SSE,163,0.0,0.0,96,0.00,,,0.00,35,weatherlink.com 1.10,2013-01-12 17:08:00,
2013-01-12 09:10:00,22.9,21.9,30.37,N/A,-737280,0.0,-999.0,96,0.00,,,0.01,35,Wunderground v.1.15,2013-01-12 17:10:00,
2013-01-12 09:15:00,22.9,21.9,30.37,N/A,-737280,0.0,-999.0,96,0.00,,,0.01,35,Wunderground v.1.15,2013-01-12 17:15:00,
2013-01-12 09:20:00,22.9,21.9,30.37,N/A,-737280,0.0,-999.0,96,0.00,,,0.01,35,Wunderground v.1.15,2013-01-12 17:20:00,
2013-01-12 09:23:00,23.1,22.0,30.37,SSE,163,0.0,0.0,96,0.00,,,0.00,37,weatherlink.com 1.10,2013-01-12 17:23:00,
2013-01-12 09:25:00,23.2,22.2,30.37,N/A,-737280,0.0,-999.0,96,0.00,,,0.01,39,Wunderground v.1.15,2013-01-12 17:25:00,
2013-01-12 09:30:00,23.2,22.2,30.37,N/A,-737280,0.0,-999.0,96,0.00,,,0.01,39,Wunderground v.1.15,2013-01-12 17:30:00,
2013-01-12 09:35:00,23.2,22.2,30.37,N/A,-737280,0.0,-999.0,96,0.00,,,0.01,39,Wunderground v.1.15,2013-01-12 17:35:00,
2013-01-12 09:38:00,23.5,23.0,30.37,SSE,163,0.0,0.0,97,0.00,,,0.00,42,weatherlink.com 1.10,2013-01-12 17:38:00,
2013-01-12 09:40:00,23.6,22.9,30.37,SSE,158,0.0,-999.0,97,0.00,,,0.01,47,Wunderground v.1.15,2013-01-12 17:40:00,
2013-01-12 09:45:00,23.6,22.9,30.37,SSE,158,0.0,-999.0,97,0.00,,,0.01,47,Wunderground v.1.15,2013-01-12 17:45:00,
2013-01-12 09:50:00,23.6,22.9,30.37,SSE,158,0.0,-999.0,97,0.00,,,0.01,47,Wunderground v.1.15,2013-01-12 17:50:00,
2013-01-12 09:53:00,24.7,24.0,30.37,SSE,155,0.0,1.0,97,0.00,,,0.00,74,weatherlink.com 1.10,2013-01-12 17:53:00,
2013-01-12 09:55:00,24.8,24.1,30.38,N/A,-737280,0.0,-999.0,97,0.00,,,0.01,81,Wunderground v.1.15,2013-01-12 17:55:00,
2013-01-12 10:00:00,24.8,24.1,30.38,N/A,-737280,0.0,-999.0,97,0.00,,,0.01,81,Wunderground v.1.15,2013-01-12 18:00:00,
2013-01-12 10:05:00,24.8,24.1,30.38,N/A,-737280,0.0,-999.0,97,0.00,,,0.01,81,Wunderground v.1.15,2013-01-12 18:05:00,
2013-01-12 10:08:00,25.6,25.0,30.38,SSE,155,0.0,0.0,98,0.00,,,0.00,200,weatherlink.com 1.10,2013-01-12 18:08:00,
2013-01-12 10:10:00,25.6,24.9,30.38,N/A,-737280,0.0,-999.0,97,0.00,,,0.01,208,Wunderground v.1.15,2013-01-12 18:10:00,
2013-01-12 10:15:00,25.6,24.9,30.38,N/A,-737280,0.0,-999.0,97,0.00,,,0.01,208,Wunderground v.1.15,2013-01-12 18:15:00,
2013-01-12 10:20:00,25.6,24.9,30.38,N/A,-737280,0.0,-999.0,97,0.00,,,0.01,208,Wunderground v.1.15,2013-01-12 18:20:00,
2013-01-12 10:23:00,26.4,26.0,30.38,SSE,155,0.0,0.0,98,0.00,,,0.00,262,weatherlink.com 1.10,2013-01-12 18:23:00,
2013-01-12 10:25:00,26.5,26.0,30.38,SSE,158,0.0,-999.0,98,0.00,,,0.01,270,Wunderground v.1.15,2013-01-12 18:25:00,
2013-01-12 10:30:00,26.5,26.0,30.38,SSE,158,0.0,-999.0,98,0.00,,,0.01,270,Wunderground v.1.15,2013-01-12 18:30:00,
2013-01-12 10:35:00,26.5,26.0,30.38,SSE,158,0.0,-999.0,98,0.00,,,0.01,270,Wunderground v.1.15,2013-01-12 18:35:00,
2013-01-12 10:38:00,27.2,27.0,30.38,SSE,153,0.0,0.0,98,0.00,,,0.00,239,weatherlink.com 1.10,2013-01-12 18:38:00,
2013-01-12 10:40:00,27.3,26.8,30.38,SSE,158,0.0,-999.0,98,0.00,,,0.01,289,Wunderground v.1.15,2013-01-12 18:40:00,
2013-01-12 10:45:00,27.3,26.8,30.38,SSE,158,0.0,-999.0,98,0.00,,,0.01,289,Wunderground v.1.15,2013-01-12 18:45:00,
2013-01-12 10:50:00,27.3,26.8,30.38,SSE,158,0.0,-999.0,98,0.00,,,0.01,289,Wunderground v.1.15,2013-01-12 18:50:00,
2013-01-12 10:53:00,28.0,28.0,30.38,SSE,152,0.0,1.0,98,0.00,,,0.00,294,weatherlink.com 1.10,2013-01-12 18:53:00,
2013-01-12 10:55:00,28.1,27.6,30.38,N/A,-737280,0.0,-999.0,98,0.00,,,0.01,295,Wunderground v.1.15,2013-01-12 18:55:00,
2013-01-12 11:00:00,28.1,27.6,30.38,N/A,-737280,0.0,-999.0,98,0.00,,,0.01,295,Wunderground v.1.15,2013-01-12 19:00:00,
2013-01-12 11:05:00,28.1,27.6,30.38,N/A,-737280,0.0,-999.0,98,0.00,,,0.01,295,Wunderground v.1.15,2013-01-12 19:05:00,
2013-01-12 11:08:00,28.6,28.0,30.38,SSE,152,0.0,1.0,98,0.00,,,0.00,308,weatherlink.com 1.10,2013-01-12 19:08:00,
2013-01-12 11:10:00,28.6,28.1,30.38,SSE,158,0.0,-999.0,98,0.00,,,0.01,305,Wunderground v.1.15,2013-01-12 19:10:00,
2013-01-12 11:15:00,28.6,28.1,30.38,SSE,158,0.0,-999.0,98,0.00,,,0.01,305,Wunderground v.1.15,2013-01-12 19:15:00,
2013-01-12 11:20:00,28.6,28.1,30.38,SSE,158,0.0,-999.0,98,0.00,,,0.01,305,Wunderground v.1.15,2013-01-12 19:20:00,
2013-01-12 11:23:00,29.3,29.0,30.38,SSE,152,0.0,1.0,98,0.00,,,0.00,343,weatherlink.com 1.10,2013-01-12 19:23:00,
2013-01-12 11:25:00,29.4,28.9,30.38,SSE,158,0.0,-999.0,98,0.00,,,0.01,328,Wunderground v.1.15,2013-01-12 19:25:00,
2013-01-12 11:30:00,29.4,28.9,30.38,SSE,158,0.0,-999.0,98,0.00,,,0.01,328,Wunderground v.1.15,2013-01-12 19:30:00,
2013-01-12 11:35:00,29.4,28.9,30.38,SSE,158,0.0,-999.0,98,0.00,,,0.01,328,Wunderground v.1.15,2013-01-12 19:35:00,
2013-01-12 11:38:00,30.6,30.0,30.38,SSE,152,0.0,1.0,98,0.00,,,0.00,334,weatherlink.com 1.10,2013-01-12 19:38:00,
2013-01-12 11:40:00,30.5,30.0,30.38,SSE,158,0.0,-999.0,98,0.00,,,0.01,336,Wunderground v.1.15,2013-01-12 19:40:00,
2013-01-12 11:45:00,30.5,30.0,30.38,SSE,158,0.0,-999.0,98,0.00,,,0.01,336,Wunderground v.1.15,2013-01-12 19:45:00,
2013-01-12 11:50:00,30.5,30.0,30.38,SSE,158,0.0,-999.0,98,0.00,,,0.01,336,Wunderground v.1.15,2013-01-12 19:50:00,
2013-01-12 11:53:00,31.1,31.0,30.38,SW,216,1.0,2.0,98,0.01,,,0.01,348,weatherlink.com 1.10,2013-01-12 19:53:00,
2013-01-12 11:55:00,31.1,30.1,30.37,SW,225,0.0,-999.0,96,0.01,,,0.01,329,Wunderground v.1.15,2013-01-12 19:55:00,
2013-01-12 12:00:00,31.1,30.1,30.37,SW,225,0.0,-999.0,96,0.01,,,0.01,329,Wunderground v.1.15,2013-01-12 20:00:00,
2013-01-12 12:05:00,31.1,30.1,30.37,SW,225,0.0,-999.0,96,0.01,,,0.01,329,Wunderground v.1.15,2013-01-12 20:05:00,
2013-01-12 12:08:00,31.4,30.0,30.37,SW,227,2.0,2.0,96,0.01,,,0.01,387,weatherlink.com 1.10,2013-01-12 20:08:00,
2013-01-12 12:10:00,31.5,30.5,30.37,SW,225,0.0,-999.0,96,0.01,,,0.01,375,Wunderground v.1.15,2013-01-12 20:10:00,
2013-01-12 12:15:00,31.5,30.5,30.37,SW,225,0.0,-999.0,96,0.01,,,0.01,375,Wunderground v.1.15,2013-01-12 20:15:00,
2013-01-12 12:20:00,31.5,30.5,30.37,SW,225,0.0,-999.0,96,0.01,,,0.01,375,Wunderground v.1.15,2013-01-12 20:20:00,
2013-01-12 12:24:00,31.9,31.0,30.37,SW,227,0.0,1.0,95,0.01,,,0.01,274,weatherlink.com 1.10,2013-01-12 20:24:00,
2013-01-12 12:25:00,31.9,30.4,30.37,SW,225,0.0,-999.0,94,0.01,,,0.01,305,Wunderground v.1.15,2013-01-12 20:25:00,
2013-01-12 12:30:00,31.9,30.4,30.37,SW,225,0.0,-999.0,94,0.01,,,0.01,305,Wunderground v.1.15,2013-01-12 20:30:00,
2013-01-12 12:35:00,31.9,30.4,30.37,SW,225,0.0,-999.0,94,0.01,,,0.01,305,Wunderground v.1.15,2013-01-12 20:35:00,
2013-01-12 12:39:00,32.4,31.0,30.37,NW,306,3.0,3.0,93,0.01,,,0.01,176,weatherlink.com 1.10,2013-01-12 20:39:00,
2013-01-12 12:40:00,32.3,30.0,30.37,West,270,1.0,-999.0,91,0.01,,,0.01,297,Wunderground v.1.15,2013-01-12 20:40:00,
2013-01-12 12:45:00,32.3,30.0,30.37,West,270,1.0,-999.0,91,0.01,,,0.01,297,Wunderground v.1.15,2013-01-12 20:45:00,
2013-01-12 12:50:00,32.3,30.0,30.37,West,270,1.0,-999.0,91,0.01,,,0.01,297,Wunderground v.1.15,2013-01-12 20:50:00,
2013-01-12 12:54:00,32.2,30.0,30.37,WSW,257,0.0,2.0,92,0.00,,,0.01,360,weatherlink.com 1.10,2013-01-12 20:54:00,
2013-01-12 12:55:00,32.3,30.8,30.37,WNW,293,1.0,-999.0,94,0.00,,,0.01,221,Wunderground v.1.15,2013-01-12 20:55:00,
2013-01-12 13:00:00,32.3,30.8,30.37,WNW,293,1.0,-999.0,94,0.00,,,0.01,221,Wunderground v.1.15,2013-01-12 21:00:00,
2013-01-12 13:05:00,32.3,30.8,30.37,WNW,293,1.0,-999.0,94,0.00,,,0.01,221,Wunderground v.1.15,2013-01-12 21:05:00,
2013-01-12 13:09:00,32.8,30.0,30.37,NW,317,3.0,6.0,89,0.00,,,0.01,332,weatherlink.com 1.10,2013-01-12 21:09:00,
2013-01-12 13:10:00,32.7,29.3,30.37,WNW,293,3.0,-999.0,87,0.00,,,0.01,280,Wunderground v.1.15,2013-01-12 21:10:00,
2013-01-12 13:15:00,32.7,29.3,30.37,WNW,293,3.0,-999.0,87,0.00,,,0.01,280,Wunderground v.1.15,2013-01-12 21:15:00,
2013-01-12 13:20:00,32.7,29.3,30.37,WNW,293,3.0,-999.0,87,0.00,,,0.01,280,Wunderground v.1.15,2013-01-12 21:20:00,
2013-01-12 13:24:00,32.9,30.0,30.37,WNW,290,2.0,5.0,90,0.00,,,0.01,308,weatherlink.com 1.10,2013-01-12 21:24:00,
2013-01-12 13:25:00,32.9,29.2,30.38,WNW,293,1.0,-999.0,86,0.00,,,0.01,297,Wunderground v.1.15,2013-01-12 21:25:00,
2013-01-12 13:30:00,32.9,29.2,30.38,WNW,293,1.0,-999.0,86,0.00,,,0.01,297,Wunderground v.1.15,2013-01-12 21:30:00,
2013-01-12 13:35:00,32.9,29.2,30.38,WNW,293,1.0,-999.0,86,0.00,,,0.01,297,Wunderground v.1.15,2013-01-12 21:35:00,
2013-01-12 13:39:00,33.0,29.0,30.38,NW,315,0.0,4.0,86,0.00,,,0.01,294,weatherlink.com 1.10,2013-01-12 21:39:00,
2013-01-12 13:40:00,33.2,29.2,30.37,NW,315,1.0,-999.0,85,0.00,,,0.01,291,Wunderground v.1.15,2013-01-12 21:40:00,
2013-01-12 13:45:00,33.2,29.2,30.37,NW,315,1.0,-999.0,85,0.00,,,0.01,291,Wunderground v.1.15,2013-01-12 21:45:00,
2013-01-12 13:50:00,33.2,29.2,30.37,NW,315,1.0,-999.0,85,0.00,,,0.01,291,Wunderground v.1.15,2013-01-12 21:50:00,
2013-01-12 13:54:00,33.4,29.0,30.37,NW,321,1.0,2.0,84,0.00,,,0.01,272,weatherlink.com 1.10,2013-01-12 21:54:00,
2013-01-12 13:55:00,33.4,28.8,30.38,NNW,338,1.0,-999.0,83,0.00,,,0.01,248,Wunderground v.1.15,2013-01-12 21:55:00,
2013-01-12 14:00:00,33.4,28.8,30.38,NNW,338,1.0,-999.0,83,0.00,,,0.01,248,Wunderground v.1.15,2013-01-12 22:00:00,
2013-01-12 14:05:00,33.4,28.8,30.38,NNW,338,1.0,-999.0,83,0.00,,,0.01,248,Wunderground v.1.15,2013-01-12 22:05:00,
2013-01-12 14:09:00,33.1,29.0,30.38,North,5,3.0,5.0,84,0.00,,,0.01,74,weatherlink.com 1.10,2013-01-12 22:09:00,
2013-01-12 14:10:00,33.1,29.7,30.38,WNW,293,1.0,-999.0,87,0.00,,,0.01,71,Wunderground v.1.15,2013-01-12 22:10:00,
2013-01-12 14:15:00,33.1,29.7,30.38,WNW,293,1.0,-999.0,87,0.00,,,0.01,71,Wunderground v.1.15,2013-01-12 22:15:00,
2013-01-12 14:20:00,33.1,29.7,30.38,WNW,293,1.0,-999.0,87,0.00,,,0.01,71,Wunderground v.1.15,2013-01-12 22:20:00,
2013-01-12 14:24:00,33.2,30.0,30.38,NW,310,3.0,5.0,86,0.00,,,0.01,135,weatherlink.com 1.10,2013-01-12 22:24:00,
2013-01-12 14:25:00,33.3,29.6,30.38,WNW,293,1.0,-999.0,86,0.00,,,0.01,146,Wunderground v.1.15,2013-01-12 22:25:00,
2013-01-12 14:30:00,33.3,29.6,30.38,WNW,293,1.0,-999.0,86,0.00,,,0.01,146,Wunderground v.1.15,2013-01-12 22:30:00,
2013-01-12 14:35:00,33.3,29.6,30.38,WNW,293,1.0,-999.0,86,0.00,,,0.01,146,Wunderground v.1.15,2013-01-12 22:35:00,
2013-01-12 14:39:00,33.9,31.0,30.38,WNW,299,0.0,3.0,87,0.00,,,0.01,146,weatherlink.com 1.10,2013-01-12 22:39:00,
2013-01-12 14:40:00,33.9,30.4,30.38,WNW,293,1.0,-999.0,87,0.00,,,0.01,131,Wunderground v.1.15,2013-01-12 22:40:00,
2013-01-12 14:45:00,33.9,30.4,30.38,WNW,293,1.0,-999.0,87,0.00,,,0.01,131,Wunderground v.1.15,2013-01-12 22:45:00,
2013-01-12 14:50:00,33.9,30.4,30.38,WNW,293,1.0,-999.0,87,0.00,,,0.01,131,Wunderground v.1.15,2013-01-12 22:50:00,
2013-01-12 14:54:00,34.0,31.0,30.38,WNW,284,1.0,3.0,87,0.00,,,0.01,165,weatherlink.com 1.10,2013-01-12 22:54:00,
2013-01-12 14:55:00,34.1,30.9,30.38,WNW,293,1.0,-999.0,88,0.00,,,0.01,164,Wunderground v.1.15,2013-01-12 22:55:00,
2013-01-12 15:00:00,34.1,30.9,30.38,WNW,293,1.0,-999.0,88,0.00,,,0.01,164,Wunderground v.1.15,2013-01-12 23:00:00,
2013-01-12 15:05:00,34.1,30.9,30.38,WNW,293,1.0,-999.0,88,0.00,,,0.01,164,Wunderground v.1.15,2013-01-12 23:05:00,
2013-01-12 15:09:00,34.3,31.0,30.38,SSW,205,2.0,3.0,86,0.00,,,0.01,139,weatherlink.com 1.10,2013-01-12 23:09:00,
2013-01-12 15:10:00,34.4,30.4,30.39,West,270,1.0,-999.0,85,0.00,,,0.01,136,Wunderground v.1.15,2013-01-12 23:10:00,
2013-01-12 15:15:00,34.4,30.4,30.39,West,270,1.0,-999.0,85,0.00,,,0.01,136,Wunderground v.1.15,2013-01-12 23:15:00,
2013-01-12 15:20:00,34.4,30.4,30.39,West,270,1.0,-999.0,85,0.00,,,0.01,136,Wunderground v.1.15,2013-01-12 23:20:00,
2013-01-12 15:24:00,34.5,31.0,30.39,WNW,298,1.0,3.0,85,0.00,,,0.01,98,weatherlink.com 1.10,2013-01-12 23:24:00,
2013-01-12 15:25:00,34.6,30.8,30.39,WNW,293,1.0,-999.0,86,0.00,,,0.01,88,Wunderground v.1.15,2013-01-12 23:25:00,
2013-01-12 15:30:00,34.6,30.8,30.39,WNW,293,1.0,-999.0,86,0.00,,,0.01,88,Wunderground v.1.15,2013-01-12 23:30:00,
2013-01-12 15:35:00,34.6,30.8,30.39,WNW,293,1.0,-999.0,86,0.00,,,0.01,88,Wunderground v.1.15,2013-01-12 23:35:00,
2013-01-12 15:39:00,34.4,31.0,30.39,WNW,298,0.0,2.0,86,0.00,,,0.01,56,weatherlink.com 1.10,2013-01-12 23:39:00,
2013-01-12 15:40:00,34.4,30.9,30.38,WNW,293,0.0,-999.0,87,0.00,,,0.01,56,Wunderground v.1.15,2013-01-12 23:40:00,
2013-01-12 15:45:00,34.4,30.9,30.38,WNW,293,0.0,-999.0,87,0.00,,,0.01,56,Wunderground v.1.15,2013-01-12 23:45:00,
2013-01-12 15:50:00,34.4,30.9,30.38,WNW,293,0.0,-999.0,87,0.00,,,0.01,56,Wunderground v.1.15,2013-01-12 23:50:00,
2013-01-12 15:54:00,34.2,31.0,30.38,WNW,298,0.0,1.0,86,0.00,,,0.01,26,weatherlink.com 1.10,2013-01-12 23:54:00,
2013-01-12 15:55:00,34.2,30.7,30.38,WNW,293,0.0,-999.0,87,0.00,,,0.01,28,Wunderground v.1.15,2013-01-12 23:55:00,
2013-01-12 16:00:00,34.2,30.7,30.38,WNW,293,0.0,-999.0,87,0.00,,,0.01,28,Wunderground v.1.15,2013-01-13 00:00:00,
2013-01-12 16:05:00,34.2,30.7,30.38,WNW,293,0.0,-999.0,87,0.00,,,0.01,28,Wunderground v.1.15,2013-01-13 00:05:00,
2013-01-12 16:09:00,33.4,30.0,30.38,WNW,298,0.0,0.0,88,0.00,,,0.01,16,weatherlink.com 1.10,2013-01-13 00:09:00,
2013-01-12 16:10:00,33.3,30.4,30.38,N/A,-737280,0.0,-999.0,89,0.00,,,0.01,15,Wunderground v.1.15,2013-01-13 00:10:00,
2013-01-12 16:15:00,33.3,30.4,30.38,N/A,-737280,0.0,-999.0,89,0.00,,,0.01,15,Wunderground v.1.15,2013-01-13 00:15:00,
2013-01-12 16:20:00,33.3,30.4,30.38,N/A,-737280,0.0,-999.0,89,0.00,,,0.01,15,Wunderground v.1.15,2013-01-13 00:20:00,
2013-01-12 16:24:00,32.5,30.0,30.38,WNW,298,0.0,0.0,89,0.00,,,0.01,7,weatherlink.com 1.10,2013-01-13 00:24:00,
2013-01-12 16:25:00,32.5,29.3,30.38,WNW,293,0.0,-999.0,88,0.00,,,0.01,7,Wunderground v.1.15,2013-01-13 00:25:00,
2013-01-12 16:30:00,32.5,29.3,30.38,WNW,293,0.0,-999.0,88,0.00,,,0.01,7,Wunderground v.1.15,2013-01-13 00:30:00,
2013-01-12 16:35:00,32.5,29.3,30.38,WNW,293,0.0,-999.0,88,0.00,,,0.01,7,Wunderground v.1.15,2013-01-13 00:35:00,
2013-01-12 16:39:00,31.9,29.0,30.38,WNW,298,0.0,2.0,88,0.00,,,0.01,0,weatherlink.com 1.10,2013-01-13 00:39:00,
2013-01-12 16:40:00,31.9,29.6,30.38,WNW,293,0.0,-999.0,91,0.00,,,0.01,0,Wunderground v.1.15,2013-01-13 00:40:00,
2013-01-12 16:45:00,31.9,29.6,30.38,WNW,293,0.0,-999.0,91,0.00,,,0.01,0,Wunderground v.1.15,2013-01-13 00:45:00,
2013-01-12 16:50:00,31.9,29.6,30.38,WNW,293,0.0,-999.0,91,0.00,,,0.01,0,Wunderground v.1.15,2013-01-13 00:50:00,
2013-01-12 16:54:00,31.1,29.0,30.38,WNW,298,0.0,0.0,91,0.00,,,0.01,0,weatherlink.com 1.10,2013-01-13 00:54:00,
2013-01-12 16:55:00,31.1,29.0,30.39,N/A,-737280,0.0,-999.0,92,0.00,,,0.01,0,Wunderground v.1.15,2013-01-13 00:55:00,
2013-01-12 17:00:00,31.1,29.0,30.39,N/A,-737280,0.0,-999.0,92,0.00,,,0.01,0,Wunderground v.1.15,2013-01-13 01:00:00,
2013-01-12 17:05:00,31.1,29.0,30.39,N/A,-737280,0.0,-999.0,92,0.00,,,0.01,0,Wunderground v.1.15,2013-01-13 01:05:00,
2013-01-12 17:09:00,30.3,29.0,30.39,WNW,298,0.0,0.0,93,0.00,,,0.01,0,weatherlink.com 1.10,2013-01-13 01:09:00,
2013-01-12 17:10:00,30.3,28.3,30.39,N/A,-737280,0.0,-999.0,92,0.00,,,0.01,0,Wunderground v.1.15,2013-01-13 01:10:00,
2013-01-12 17:15:00,30.3,28.3,30.39,N/A,-737280,0.0,-999.0,92,0.00,,,0.01,0,Wunderground v.1.15,2013-01-13 01:15:00,
2013-01-12 17:20:00,30.3,28.3,30.39,N/A,-737280,0.0,-999.0,92,0.00,,,0.01,0,Wunderground v.1.15,2013-01-13 01:20:00,
2013-01-12 17:24:00,29.8,28.0,30.39,WNW,298,0.0,0.0,93,0.00,,,0.01,0,weatherlink.com 1.10,2013-01-13 01:24:00,
2013-01-12 17:25:00,29.8,28.0,30.39,N/A,-737280,0.0,-999.0,93,0.00,,,0.01,0,Wunderground v.1.15,2013-01-13 01:25:00,
2013-01-12 17:30:00,29.8,28.0,30.39,N/A,-737280,0.0,-999.0,93,0.00,,,0.01,0,Wunderground v.1.15,2013-01-13 01:30:00,
2013-01-12 17:35:00,29.8,28.0,30.39,N/A,-737280,0.0,-999.0,93,0.00,,,0.01,0,Wunderground v.1.15,2013-01-13 01:35:00,
2013-01-12 17:39:00,29.3,28.0,30.39,WNW,298,0.0,0.0,93,0.00,,,0.01,0,weatherlink.com 1.10,2013-01-13 01:39:00,
2013-01-12 17:40:00,29.2,27.7,30.39,N/A,-737280,0.0,-999.0,94,0.00,,,0.01,0,Wunderground v.1.15,2013-01-13 01:40:00,
2013-01-12 17:45:00,29.2,27.7,30.39,N/A,-737280,0.0,-999.0,94,0.00,,,0.01,0,Wunderground v.1.15,2013-01-13 01:45:00,
2013-01-12 17:50:00,29.2,27.7,30.39,N/A,-737280,0.0,-999.0,94,0.00,,,0.01,0,Wunderground v.1.15,2013-01-13 01:50:00,
2013-01-12 17:54:00,28.8,27.0,30.39,WNW,298,0.0,0.0,94,0.00,,,0.01,0,weatherlink.com 1.10,2013-01-13 01:54:00,
2013-01-12 17:55:00,28.8,27.3,30.39,N/A,-737280,0.0,-999.0,94,0.00,,,0.01,0,Wunderground v.1.15,2013-01-13 01:55:00,
2013-01-12 18:00:00,28.8,27.3,30.39,N/A,-737280,0.0,-999.0,94,0.00,,,0.01,0,Wunderground v.1.15,2013-01-13 02:00:00,
2013-01-12 18:05:00,28.8,27.3,30.39,N/A,-737280,0.0,-999.0,94,0.00,,,0.01,0,Wunderground v.1.15,2013-01-13 02:05:00,
2013-01-12 18:09:00,28.4,27.0,30.39,WNW,298,0.0,0.0,95,0.00,,,0.01,0,weatherlink.com 1.10,2013-01-13 02:09:00,
2013-01-12 18:10:00,28.4,27.2,30.39,N/A,-737280,0.0,-999.0,95,0.00,,,0.01,0,Wunderground v.1.15,2013-01-13 02:10:00,
2013-01-12 18:15:00,28.4,27.2,30.39,N/A,-737280,0.0,-999.0,95,0.00,,,0.01,0,Wunderground v.1.15,2013-01-13 02:15:00,
2013-01-12 18:20:00,28.4,27.2,30.39,N/A,-737280,0.0,-999.0,95,0.00,,,0.01,0,Wunderground v.1.15,2013-01-13 02:20:00,
2013-01-12 18:24:00,28.2,27.0,30.39,WNW,298,0.0,0.0,95,0.00,,,0.01,0,weatherlink.com 1.10,2013-01-13 02:24:00,
2013-01-12 18:25:00,28.1,26.9,30.39,N/A,-737280,0.0,-999.0,95,0.00,,,0.01,0,Wunderground v.1.15,2013-01-13 02:25:00,
2013-01-12 18:30:00,28.1,26.9,30.39,N/A,-737280,0.0,-999.0,95,0.00,,,0.01,0,Wunderground v.1.15,2013-01-13 02:30:00,
2013-01-12 18:35:00,28.1,26.9,30.39,N/A,-737280,0.0,-999.0,95,0.00,,,0.01,0,Wunderground v.1.15,2013-01-13 02:35:00,
2013-01-12 18:39:00,27.8,27.0,30.39,WNW,298,0.0,0.0,95,0.00,,,0.01,0,weatherlink.com 1.10,2013-01-13 02:39:00,
2013-01-12 18:40:00,27.8,26.6,30.39,N/A,-737280,0.0,-999.0,95,0.00,,,0.01,0,Wunderground v.1.15,2013-01-13 02:40:00,
2013-01-12 18:45:00,27.8,26.6,30.39,N/A,-737280,0.0,-999.0,95,0.00,,,0.01,0,Wunderground v.1.15,2013-01-13 02:45:00,
2013-01-12 18:50:00,27.8,26.6,30.39,N/A,-737280,0.0,-999.0,95,0.00,,,0.01,0,Wunderground v.1.15,2013-01-13 02:50:00,
2013-01-12 18:54:00,27.4,26.0,30.39,WNW,298,0.0,0.0,95,0.00,,,0.01,0,weatherlink.com 1.10,2013-01-13 02:54:00,
2013-01-12 18:55:00,27.3,26.1,30.40,N/A,-737280,0.0,-999.0,95,0.00,,,0.01,0,Wunderground v.1.15,2013-01-13 02:55:00,
2013-01-12 19:00:00,27.3,26.1,30.40,N/A,-737280,0.0,-999.0,95,0.00,,,0.01,0,Wunderground v.1.15,2013-01-13 03:00:00,
2013-01-12 19:05:00,27.3,26.1,30.40,N/A,-737280,0.0,-999.0,95,0.00,,,0.01,0,Wunderground v.1.15,2013-01-13 03:05:00,
2013-01-12 19:09:00,26.9,26.0,30.40,WNW,298,0.0,0.0,95,0.00,,,0.01,0,weatherlink.com 1.10,2013-01-13 03:09:00,
2013-01-12 19:10:00,26.9,25.7,30.40,N/A,-737280,0.0,-999.0,95,0.00,,,0.01,0,Wunderground v.1.15,2013-01-13 03:10:00,
2013-01-12 19:15:00,26.9,25.7,30.40,N/A,-737280,0.0,-999.0,95,0.00,,,0.01,0,Wunderground v.1.15,2013-01-13 03:15:00,
2013-01-12 19:20:00,26.9,25.7,30.40,N/A,-737280,0.0,-999.0,95,0.00,,,0.01,0,Wunderground v.1.15,2013-01-13 03:20:00,
2013-01-12 19:24:00,26.7,26.0,30.39,WNW,298,0.0,0.0,96,0.00,,,0.01,0,weatherlink.com 1.10,2013-01-13 03:24:00,
2013-01-12 19:25:00,26.7,25.7,30.40,N/A,-737280,0.0,-999.0,96,0.00,,,0.01,0,Wunderground v.1.15,2013-01-13 03:25:00,
2013-01-12 19:30:00,26.7,25.7,30.40,N/A,-737280,0.0,-999.0,96,0.00,,,0.01,0,Wunderground v.1.15,2013-01-13 03:30:00,
2013-01-12 19:35:00,26.7,25.7,30.40,N/A,-737280,0.0,-999.0,96,0.00,,,0.01,0,Wunderground v.1.15,2013-01-13 03:35:00,
2013-01-12 19:39:00,26.5,26.0,30.40,WNW,298,0.0,0.0,96,0.00,,,0.01,0,weatherlink.com 1.10,2013-01-13 03:39:00,
2013-01-12 19:40:00,26.5,25.5,30.40,N/A,-737280,0.0,-999.0,96,0.00,,,0.01,0,Wunderground v.1.15,2013-01-13 03:40:00,
2013-01-12 19:45:00,26.5,25.5,30.40,N/A,-737280,0.0,-999.0,96,0.00,,,0.01,0,Wunderground v.1.15,2013-01-13 03:45:00,
2013-01-12 19:50:00,26.5,25.5,30.40,N/A,-737280,0.0,-999.0,96,0.00,,,0.01,0,Wunderground v.1.15,2013-01-13 03:50:00,
2013-01-12 19:54:00,26.2,25.0,30.40,WNW,298,0.0,0.0,95,0.00,,,0.01,0,weatherlink.com 1.10,2013-01-13 03:54:00,
2013-01-12 19:55:00,26.2,25.2,30.40,N/A,-737280,0.0,-999.0,96,0.00,,,0.01,0,Wunderground v.1.15,2013-01-13 03:55:00,
2013-01-12 20:00:00,26.2,25.2,30.40,N/A,-737280,0.0,-999.0,96,0.00,,,0.01,0,Wunderground v.1.15,2013-01-13 04:00:00,
2013-01-12 20:05:00,26.2,25.2,30.40,N/A,-737280,0.0,-999.0,96,0.00,,,0.01,0,Wunderground v.1.15,2013-01-13 04:05:00,
2013-01-12 20:09:00,26.0,25.0,30.39,WNW,298,0.0,0.0,96,0.00,,,0.01,0,weatherlink.com 1.10,2013-01-13 04:09:00,
2013-01-12 20:10:00,26.0,25.0,30.40,N/A,-737280,0.0,-999.0,96,0.00,,,0.01,0,Wunderground v.1.15,2013-01-13 04:10:00,
2013-01-12 20:15:00,26.0,25.0,30.40,N/A,-737280,0.0,-999.0,96,0.00,,,0.01,0,Wunderground v.1.15,2013-01-13 04:15:00,
2013-01-12 20:20:00,26.0,25.0,30.40,N/A,-737280,0.0,-999.0,96,0.00,,,0.01,0,Wunderground v.1.15,2013-01-13 04:20:00,
2013-01-12 20:24:00,25.9,25.0,30.40,WNW,298,0.0,0.0,96,0.00,,,0.01,0,weatherlink.com 1.10,2013-01-13 04:24:00,
2013-01-12 20:25:00,25.9,24.9,30.40,N/A,-737280,0.0,-999.0,96,0.00,,,0.01,0,Wunderground v.1.15,2013-01-13 04:25:00,
2013-01-12 20:30:00,25.9,24.9,30.40,N/A,-737280,0.0,-999.0,96,0.00,,,0.01,0,Wunderground v.1.15,2013-01-13 04:30:00,
2013-01-12 20:35:00,25.9,24.9,30.40,N/A,-737280,0.0,-999.0,96,0.00,,,0.01,0,Wunderground v.1.15,2013-01-13 04:35:00,
2013-01-12 20:39:00,25.6,25.0,30.40,WNW,298,0.0,0.0,96,0.00,,,0.01,0,weatherlink.com 1.10,2013-01-13 04:39:00,
2013-01-12 20:40:00,25.5,24.5,30.39,N/A,-737280,0.0,-999.0,96,0.00,,,0.01,0,Wunderground v.1.15,2013-01-13 04:40:00,
2013-01-12 20:45:00,25.5,24.5,30.39,N/A,-737280,0.0,-999.0,96,0.00,,,0.01,0,Wunderground v.1.15,2013-01-13 04:45:00,
2013-01-12 20:50:00,25.5,24.5,30.39,N/A,-737280,0.0,-999.0,96,0.00,,,0.01,0,Wunderground v.1.15,2013-01-13 04:50:00,
2013-01-12 20:54:00,25.3,24.0,30.39,WNW,298,0.0,0.0,96,0.00,,,0.01,0,weatherlink.com 1.10,2013-01-13 04:54:00,
2013-01-12 20:55:00,25.3,24.3,30.40,N/A,-737280,0.0,-999.0,96,0.00,,,0.01,0,Wunderground v.1.15,2013-01-13 04:55:00,
2013-01-12 21:00:00,25.3,24.3,30.40,N/A,-737280,0.0,-999.0,96,0.00,,,0.01,0,Wunderground v.1.15,2013-01-13 05:00:00,
2013-01-12 21:05:00,25.3,24.3,30.40,N/A,-737280,0.0,-999.0,96,0.00,,,0.01,0,Wunderground v.1.15,2013-01-13 05:05:00,
2013-01-12 21:09:00,25.0,24.0,30.40,WNW,298,0.0,0.0,96,0.00,,,0.01,0,weatherlink.com 1.10,2013-01-13 05:09:00,
2013-01-12 21:10:00,25.0,24.0,30.40,N/A,-737280,0.0,-999.0,96,0.00,,,0.01,0,Wunderground v.1.15,2013-01-13 05:10:00,
2013-01-12 21:15:00,25.0,24.0,30.40,N/A,-737280,0.0,-999.0,96,0.00,,,0.01,0,Wunderground v.1.15,2013-01-13 05:15:00,
2013-01-12 21:20:00,25.0,24.0,30.40,N/A,-737280,0.0,-999.0,96,0.00,,,0.01,0,Wunderground v.1.15,2013-01-13 05:20:00,
2013-01-12 21:24:00,24.8,24.0,30.40,WNW,298,0.0,0.0,96,0.00,,,0.01,0,weatherlink.com 1.10,2013-01-13 05:24:00,
2013-01-12 21:25:00,24.8,23.8,30.40,N/A,-737280,0.0,-999.0,96,0.00,,,0.01,0,Wunderground v.1.15,2013-01-13 05:25:00,
2013-01-12 21:30:00,24.8,23.8,30.40,N/A,-737280,0.0,-999.0,96,0.00,,,0.01,0,Wunderground v.1.15,2013-01-13 05:30:00,
2013-01-12 21:35:00,24.8,23.8,30.40,N/A,-737280,0.0,-999.0,96,0.00,,,0.01,0,Wunderground v.1.15,2013-01-13 05:35:00,
2013-01-12 21:39:00,24.5,24.0,30.40,WNW,298,0.0,0.0,96,0.00,,,0.01,0,weatherlink.com 1.10,2013-01-13 05:39:00,
2013-01-12 21:40:00,24.5,23.5,30.40,N/A,-737280,0.0,-999.0,96,0.00,,,0.01,0,Wunderground v.1.15,2013-01-13 05:40:00,
2013-01-12 21:45:00,24.5,23.5,30.40,N/A,-737280,0.0,-999.0,96,0.00,,,0.01,0,Wunderground v.1.15,2013-01-13 05:45:00,
2013-01-12 21:50:00,24.5,23.5,30.40,N/A,-737280,0.0,-999.0,96,0.00,,,0.01,0,Wunderground v.1.15,2013-01-13 05:50:00,
2013-01-12 21:54:00,24.2,23.0,30.40,WNW,298,0.0,0.0,96,0.00,,,0.01,0,weatherlink.com 1.10,2013-01-13 05:54:00,
2013-01-12 21:55:00,24.2,23.2,30.41,N/A,-737280,0.0,-999.0,96,0.00,,,0.01,0,Wunderground v.1.15,2013-01-13 05:55:00,
2013-01-12 22:00:00,24.2,23.2,30.41,N/A,-737280,0.0,-999.0,96,0.00,,,0.01,0,Wunderground v.1.15,2013-01-13 06:00:00,
2013-01-12 22:05:00,24.2,23.2,30.41,N/A,-737280,0.0,-999.0,96,0.00,,,0.01,0,Wunderground v.1.15,2013-01-13 06:05:00,
2013-01-12 22:09:00,24.0,23.0,30.41,WNW,298,0.0,0.0,96,0.00,,,0.01,0,weatherlink.com 1.10,2013-01-13 06:09:00,
2013-01-12 22:10:00,24.0,23.0,30.41,N/A,-737280,0.0,-999.0,96,0.00,,,0.01,0,Wunderground v.1.15,2013-01-13 06:10:00,
2013-01-12 22:15:00,24.0,23.0,30.41,N/A,-737280,0.0,-999.0,96,0.00,,,0.01,0,Wunderground v.1.15,2013-01-13 06:15:00,
2013-01-12 22:20:00,24.0,23.0,30.41,N/A,-737280,0.0,-999.0,96,0.00,,,0.01,0,Wunderground v.1.15,2013-01-13 06:20:00,
2013-01-12 22:24:00,24.1,23.0,30.41,WNW,297,0.0,1.0,96,0.00,,,0.01,0,weatherlink.com 1.10,2013-01-13 06:24:00,
2013-01-12 22:25:00,24.1,23.1,30.41,WNW,293,0.0,-999.0,96,0.00,,,0.01,0,Wunderground v.1.15,2013-01-13 06:25:00,
2013-01-12 22:30:00,24.1,23.1,30.41,WNW,293,0.0,-999.0,96,0.00,,,0.01,0,Wunderground v.1.15,2013-01-13 06:30:00,
2013-01-12 22:35:00,24.1,23.1,30.41,WNW,293,0.0,-999.0,96,0.00,,,0.01,0,Wunderground v.1.15,2013-01-13 06:35:00,
2013-01-12 22:39:00,24.0,23.0,30.41,WNW,298,0.0,0.0,96,0.00,,,0.01,0,weatherlink.com 1.10,2013-01-13 06:39:00,
2013-01-12 22:40:00,23.9,22.9,30.42,N/A,-737280,0.0,-999.0,96,0.00,,,0.01,0,Wunderground v.1.15,2013-01-13 06:40:00,
2013-01-12 22:45:00,23.9,22.9,30.42,N/A,-737280,0.0,-999.0,96,0.00,,,0.01,0,Wunderground v.1.15,2013-01-13 06:45:00,
2013-01-12 22:50:00,23.9,22.9,30.42,N/A,-737280,0.0,-999.0,96,0.00,,,0.01,0,Wunderground v.1.15,2013-01-13 06:50:00,
2013-01-12 22:54:00,23.7,23.0,30.42,WNW,298,0.0,0.0,96,0.00,,,0.01,0,weatherlink.com 1.10,2013-01-13 06:54:00,
2013-01-12 22:55:00,23.7,22.7,30.42,N/A,-737280,0.0,-999.0,96,0.00,,,0.01,0,Wunderground v.1.15,2013-01-13 06:55:00,
2013-01-12 23:00:00,23.7,22.7,30.42,N/A,-737280,0.0,-999.0,96,0.00,,,0.01,0,Wunderground v.1.15,2013-01-13 07:00:00,
2013-01-12 23:05:00,23.7,22.7,30.42,N/A,-737280,0.0,-999.0,96,0.00,,,0.01,0,Wunderground v.1.15,2013-01-13 07:05:00,
2013-01-12 23:09:00,23.5,23.0,30.42,WNW,298,0.0,0.0,96,0.00,,,0.01,0,weatherlink.com 1.10,2013-01-13 07:09:00,
2013-01-12 23:10:00,23.5,22.3,30.43,N/A,-737280,0.0,-999.0,95,0.00,,,0.01,0,Wunderground v.1.15,2013-01-13 07:10:00,
2013-01-12 23:15:00,23.5,22.3,30.43,N/A,-737280,0.0,-999.0,95,0.00,,,0.01,0,Wunderground v.1.15,2013-01-13 07:15:00,
2013-01-12 23:20:00,23.5,22.3,30.43,N/A,-737280,0.0,-999.0,95,0.00,,,0.01,0,Wunderground v.1.15,2013-01-13 07:20:00,
2013-01-12 23:24:00,23.2,22.0,30.43,WNW,298,0.0,0.0,95,0.00,,,0.01,0,weatherlink.com 1.10,2013-01-13 07:24:00,
2013-01-12 23:25:00,23.2,22.2,30.43,N/A,-737280,0.0,-999.0,96,0.00,,,0.01,0,Wunderground v.1.15,2013-01-13 07:25:00,
2013-01-12 23:30:00,23.2,22.2,30.43,N/A,-737280,0.0,-999.0,96,0.00,,,0.01,0,Wunderground v.1.15,2013-01-13 07:30:00,
2013-01-12 23:35:00,23.2,22.2,30.43,N/A,-737280,0.0,-999.0,96,0.00,,,0.01,0,Wunderground v.1.15,2013-01-13 07:35:00,
2013-01-12 23:39:00,23.0,22.0,30.43,WNW,298,0.0,0.0,96,0.00,,,0.01,0,weatherlink.com 1.10,2013-01-13 07:39:00,
2013-01-12 23:40:00,23.0,22.0,30.43,N/A,-737280,0.0,-999.0,96,0.00,,,0.01,0,Wunderground v.1.15,2013-01-13 07:40:00,
2013-01-12 23:45:00,23.0,22.0,30.43,N/A,-737280,0.0,-999.0,96,0.00,,,0.01,0,Wunderground v.1.15,2013-01-13 07:45:00,
2013-01-12 23:50:00,23.0,22.0,30.43,N/A,-737280,0.0,-999.0,96,0.00,,,0.01,0,Wunderground v.1.15,2013-01-13 07:50:00,
2013-01-12 23:54:00,22.8,22.0,30.43,WNW,298,0.0,0.0,96,0.00,,,0.01,0,weatherlink.com 1.10,2013-01-13 07:54:00,
2013-01-12 23:55:00,22.8,21.8,30.43,N/A,-737280,0.0,-999.0,96,0.00,,,0.01,0,Wunderground v.1.15,2013-01-13 07:55:00,